Regional Weather Roundup
Issued by NWS Bismarck, ND

Home | Current Version | Previous Version | Text Only | Print | Product List | Glossary On
Versions: 1 2 3 4 5 6 7 8 9 10 11 12 13 14 15 16 17 18 19 20 21 22 23 24 25 26 27 28 29 30 31 32 33 34 35 36 37 38 39 40 41 42 43 44 45 46 47 48 49 50
000
ASUS43 KBIS 111110
RWRBIS

NWR BROADCAST TEXT
NATIONAL WEATHER SERVICE BISMARCK ND
500 AM CST THU FEB 11 2016

NOTE: "FAIR" INDICATES FEW OR NO CLOUDS BELOW 12,000 FEET WITH NO
SIGNIFICANT WEATHER AND/OR OBSTRUCTIONS TO VISIBILITY.


CITY           SKY/WX    TMP DP  RH WIND       PRES   REMARKS
WILLISTON      LGT SNOW  26  23  88 CALM      30.07S FOG
MINOT          CLOUDY    15   6  67 NE6       30.14F WCI   6
MINOT AFB      CLOUDY    12   9  89 E6        30.13F WCI   2
BISMARCK       CLOUDY    19  12  74 SE7       30.15F WCI  10
DICKINSON      CLOUDY    25  22  88 SE7       30.00F FOG     WCI  17
GARRISON         N/A     15  11  83 E5        30.10F WCI   8
HETTINGER ARPT LGT SNOW  29  27  92 S7        30.04F FOG
JAMESTOWN      CLOUDY     6   1  80 SE7       30.19F WCI  -6
BEACH          FLURRIES  28  28 100 SE7       30.03S
CARRINGTON     CLOUDY     9   9 100 SE7       30.20S WCI  -3
HAZEN          LGT SNOW  16  12  86 NE3       30.14F
LINTON         PTSUNNY   14  14 100 SE7       30.18R WCI   4
MANDAN         FLURRIES  16  14  93 E6        30.12F WCI   7
OAKES          CLOUDY     7   3  85 SE6       30.23S WCI  -3
RUGBY          PTSUNNY    9   7  92 CALM      30.18S
STANLEY        LGT SNOW  16  18 100 E5        30.10S WCI   9
TIOGA          LGT SNOW  18  18 100 E6        30.11F WCI   9
WATFORD CITY   LGT SNOW  23  19  86 E8        30.06F WCI  14
$$

CITY           SKY/WX    TMP DP  RH WIND       PRES   REMARKS
GRAND FORKS    CLOUDY     3  -2  79 CALM      30.29S
GRAND FORKS AF CLOUDY     3  -2  79 S3        30.28S
DEVILS LAKE    FLURRIES   4   1  88 S6        30.20F WCI  -7
FARGO          CLOUDY     2  -4  76 CALM      30.29S
CAVALIER       CLOUDY     1   0  92 SE3       30.26F
GRAFTON        CLOUDY     1   0  92 SE5       30.30F WCI  -8
GWINNER        CLOUDY     9   3  78 CALM      30.25S
LANGDON        CLOUDY     5   0  78 SW8       30.18F WCI  -8
ROLLA          FLURRIES   7   3  85 CALM      30.17S
WALHALLA       FAIR       1   1 100 CALM      30.25F
$$

CITY           SKY/WX    TMP DP  RH WIND       PRES   REMARKS
ABERDEEN       CLOUDY    15   9  76 CALM      30.23F
MOBRIDGE       CLOUDY    19  15  84 SE8       30.11F WCI   9
BUFFALO          N/A     32  28  85 SW14      29.94F
RAPID CITY     CLOUDY    28  27  96 SE9       30.01F FOG     WCI  19
GLASGOW        CLOUDY    29  25  85 E13       29.99S WCI  19
SIDNEY         CLOUDY    28  25  86 E3        30.05F VSB 1/2
WOLF POINT     LGT SNOW  28  24  85 E13       30.03S FOG     WCI  17
GLENDIVE       CLOUDY    28  27  93 NE3       30.03S
MILES CITY     CLOUDY    32  28  85 N5        29.97R
BAKER          CLOUDY    32  27  81 SE5       29.99F
$$

CITY           SKY/WX    TMP DP  RH WIND       PRES   REMARKS
BILLINGS       MOCLDY    46  22  38 W10       30.03R
GREAT FALLS    CLOUDY    38  27  64 SW14      30.08S
REGINA         FLURRIES  14  10  85 E7        30.12F WCI   4
ESTEVAN        FLURRIES  14  10  85 E9        30.10F WCI   2
$$




USA.gov is the U.S. government's official web portal to all federal, state and local government web resources and services.